Time,TemperatureF,DewpointF,PressureIn,WindDirection,WindDirectionDegrees,WindSpeedMPH,WindSpeedGustMPH,Humidity,HourlyPrecipIn,Conditions,Clouds,dailyrainin,SolarRadiationWatts/m^2,SoftwareType,DateUTC
2013-02-24 00:22:00,37.0,37.0,-100.00,NE,48,0.0,0.0,99,0.00,,,0.00,0.000000,,2013-02-24 08:22:00,
2013-02-24 00:31:00,37.0,37.0,-100.00,NE,48,0.0,0.0,99,0.00,,,0.00,0.000000,,2013-02-24 08:31:00,
2013-02-24 00:41:00,37.0,37.0,-100.00,NE,48,0.0,0.0,99,0.00,,,0.00,0.000000,,2013-02-24 08:41:00,
2013-02-24 00:53:00,37.0,37.0,-100.00,NE,48,0.0,0.0,99,0.00,,,0.00,0.000000,,2013-02-24 08:53:00,
2013-02-24 01:21:00,35.0,35.0,-100.00,SE,125,0.0,0.0,99,0.00,,,0.00,0.000000,,2013-02-24 09:21:00,
2013-02-24 01:31:00,35.0,35.0,-100.00,SE,125,0.0,0.0,99,0.00,,,0.00,0.000000,,2013-02-24 09:31:00,
2013-02-24 01:41:00,35.0,35.0,-100.00,SE,125,0.0,0.0,99,0.00,,,0.00,0.000000,,2013-02-24 09:41:00,
2013-02-24 01:51:00,35.0,35.0,-100.00,SE,125,0.0,0.0,99,0.00,,,0.00,0.000000,,2013-02-24 09:51:00,
2013-02-24 02:21:00,33.0,33.0,-100.00,ESE,113,0.0,3.0,100,0.00,,,0.00,0.000000,,2013-02-24 10:21:00,
2013-02-24 02:31:00,33.0,33.0,-100.00,ESE,113,0.0,3.0,100,0.00,,,0.00,0.000000,,2013-02-24 10:31:00,
2013-02-24 02:41:00,33.0,33.0,-100.00,ESE,113,0.0,3.0,100,0.00,,,0.00,0.000000,,2013-02-24 10:41:00,
2013-02-24 02:51:00,33.0,33.0,-100.00,ESE,113,0.0,3.0,100,0.00,,,0.00,0.000000,,2013-02-24 10:51:00,
2013-02-24 03:21:00,33.0,33.0,-100.00,SE,128,0.0,4.0,100,0.00,,,0.00,0.000000,,2013-02-24 11:21:00,
2013-02-24 03:32:00,33.0,33.0,-100.00,SE,128,0.0,4.0,100,0.00,,,0.00,0.000000,,2013-02-24 11:32:00,
2013-02-24 03:41:00,33.0,33.0,-100.00,SE,128,0.0,4.0,100,0.00,,,0.00,0.000000,,2013-02-24 11:41:00,
2013-02-24 03:52:00,33.0,33.0,-100.00,SE,128,0.0,4.0,100,0.00,,,0.00,0.000000,,2013-02-24 11:52:00,
2013-02-24 04:21:00,34.0,34.0,-100.00,SE,132,1.0,4.0,100,0.00,,,0.00,0.000000,,2013-02-24 12:21:00,
2013-02-24 04:32:00,34.0,34.0,-100.00,SE,132,1.0,4.0,100,0.00,,,0.00,0.000000,,2013-02-24 12:32:00,
2013-02-24 04:46:00,34.0,34.0,-100.00,SE,132,1.0,4.0,100,0.00,,,0.00,0.000000,,2013-02-24 12:46:00,
2013-02-24 04:55:00,34.0,34.0,-100.00,SE,132,1.0,4.0,100,0.00,,,0.00,0.000000,,2013-02-24 12:55:00,
2013-02-24 05:33:00,35.0,35.0,-100.00,East,98,0.0,4.0,100,0.00,,,0.00,0.000000,,2013-02-24 13:33:00,
2013-02-24 05:43:00,35.0,35.0,-100.00,East,98,0.0,4.0,100,0.00,,,0.00,0.000000,,2013-02-24 13:43:00,
2013-02-24 05:52:00,35.0,35.0,-100.00,East,98,0.0,4.0,100,0.00,,,0.00,0.000000,,2013-02-24 13:52:00,
2013-02-24 06:23:00,34.0,34.0,-100.00,ESE,113,0.0,4.0,99,0.00,,,0.00,0.000000,,2013-02-24 14:23:00,
2013-02-24 06:32:00,34.0,34.0,-100.00,ESE,113,0.0,4.0,99,0.00,,,0.00,0.000000,,2013-02-24 14:32:00,
2013-02-24 06:43:00,34.0,34.0,-100.00,ESE,113,0.0,4.0,99,0.00,,,0.00,0.000000,,2013-02-24 14:43:00,
2013-02-24 06:52:00,34.0,34.0,-100.00,ESE,113,0.0,4.0,99,0.00,,,0.00,0.000000,,2013-02-24 14:52:00,
2013-02-24 07:22:00,33.0,33.0,-100.00,SE,130,2.0,5.0,99,0.00,,,0.00,4.000000,,2013-02-24 15:22:00,
2013-02-24 07:32:00,33.0,33.0,-100.00,SE,130,2.0,5.0,99,0.00,,,0.00,4.000000,,2013-02-24 15:32:00,
2013-02-24 07:42:00,33.0,33.0,-100.00,SE,130,2.0,5.0,99,0.00,,,0.00,4.000000,,2013-02-24 15:42:00,
2013-02-24 07:52:00,33.0,33.0,-100.00,SE,130,2.0,5.0,99,0.00,,,0.00,4.000000,,2013-02-24 15:52:00,
2013-02-24 08:21:00,39.0,35.0,-100.00,ESE,119,1.0,6.0,87,0.01,,,0.01,123.000000,,2013-02-24 16:21:00,
2013-02-24 08:31:00,39.0,35.0,-100.00,ESE,119,1.0,6.0,87,0.01,,,0.01,123.000000,,2013-02-24 16:31:00,
2013-02-24 08:41:00,39.0,35.0,-100.00,ESE,119,1.0,6.0,87,0.01,,,0.01,123.000000,,2013-02-24 16:41:00,
2013-02-24 08:52:00,39.0,35.0,-100.00,ESE,119,1.0,6.0,87,0.01,,,0.01,123.000000,,2013-02-24 16:52:00,
2013-02-24 10:22:00,48.0,38.0,-100.00,WNW,289,4.0,6.0,69,-99.99,,,0.01,585.000000,,2013-02-24 18:22:00,
2013-02-24 10:42:00,48.0,38.0,-100.00,WNW,289,4.0,6.0,69,-99.99,,,0.01,585.000000,,2013-02-24 18:42:00,
2013-02-24 10:51:00,48.0,38.0,-100.00,WNW,289,4.0,6.0,69,-99.99,,,0.01,585.000000,,2013-02-24 18:51:00,
2013-02-24 11:22:00,48.0,39.0,-100.00,West,273,4.0,9.0,72,0.00,,,0.01,767.000000,,2013-02-24 19:22:00,
2013-02-24 11:41:00,48.0,39.0,-100.00,West,273,4.0,9.0,72,0.00,,,0.01,767.000000,,2013-02-24 19:41:00,
2013-02-24 11:51:00,48.0,39.0,-100.00,West,273,4.0,9.0,72,0.00,,,0.01,767.000000,,2013-02-24 19:51:00,
2013-02-24 12:21:00,48.0,38.0,-100.00,WNW,298,4.0,11.0,68,0.00,,,0.01,856.000000,,2013-02-24 20:21:00,
2013-02-24 13:21:00,51.0,38.0,-100.00,West,268,3.0,10.0,60,0.00,,,0.01,882.000000,,2013-02-24 21:21:00,
2013-02-24 13:41:00,51.0,38.0,-100.00,West,268,3.0,10.0,60,0.00,,,0.01,882.000000,,2013-02-24 21:41:00,
2013-02-24 13:52:00,51.0,38.0,-100.00,West,268,3.0,10.0,60,0.00,,,0.01,882.000000,,2013-02-24 21:52:00,
2013-02-24 14:21:00,51.0,37.0,-100.00,WNW,290,4.0,10.0,58,0.00,,,0.01,837.000000,,2013-02-24 22:21:00,
2013-02-24 15:21:00,51.0,35.0,-100.00,West,266,3.0,10.0,55,0.00,,,0.01,711.000000,,2013-02-24 23:21:00,
2013-02-24 15:41:00,51.0,35.0,-100.00,West,266,3.0,10.0,55,0.00,,,0.01,711.000000,,2013-02-24 23:41:00,
2013-02-24 15:52:00,51.0,35.0,-100.00,West,266,3.0,10.0,55,0.00,,,0.01,711.000000,,2013-02-24 23:52:00,
2013-02-24 16:41:00,52.0,36.0,-100.00,WSW,251,3.0,9.0,55,0.00,,,0.01,517.000000,,2013-02-25 00:41:00,
2013-02-24 16:51:00,52.0,36.0,-100.00,WSW,251,3.0,9.0,55,0.00,,,0.01,517.000000,,2013-02-25 00:51:00,
2013-02-24 17:21:00,49.0,34.0,-100.00,WSW,242,3.0,9.0,57,0.00,,,0.01,290.000000,,2013-02-25 01:21:00,
2013-02-24 17:31:00,49.0,34.0,-100.00,WSW,242,3.0,9.0,57,0.00,,,0.01,290.000000,,2013-02-25 01:31:00,
2013-02-24 17:42:00,49.0,34.0,-100.00,WSW,242,3.0,9.0,57,0.00,,,0.01,290.000000,,2013-02-25 01:42:00,
2013-02-24 17:51:00,49.0,34.0,-100.00,WSW,242,3.0,9.0,57,0.00,,,0.01,290.000000,,2013-02-25 01:51:00,
2013-02-24 18:21:00,40.0,34.0,-100.00,North,4,0.0,7.0,78,0.00,,,0.01,46.000000,,2013-02-25 02:21:00,
2013-02-24 18:31:00,40.0,34.0,-100.00,North,4,0.0,7.0,78,0.00,,,0.01,46.000000,,2013-02-25 02:31:00,
2013-02-24 18:41:00,40.0,34.0,-100.00,North,4,0.0,7.0,78,0.00,,,0.01,46.000000,,2013-02-25 02:41:00,
2013-02-24 18:52:00,40.0,34.0,-100.00,North,4,0.0,7.0,78,0.00,,,0.01,46.000000,,2013-02-25 02:52:00,
2013-02-24 19:21:00,35.0,35.0,-100.00,ESE,112,0.0,5.0,99,0.00,,,0.01,0.000000,,2013-02-25 03:21:00,
2013-02-24 19:31:00,35.0,35.0,-100.00,ESE,112,0.0,5.0,99,0.00,,,0.01,0.000000,,2013-02-25 03:31:00,
2013-02-24 19:41:00,35.0,35.0,-100.00,ESE,112,0.0,5.0,99,0.00,,,0.01,0.000000,,2013-02-25 03:41:00,
2013-02-24 19:51:00,35.0,35.0,-100.00,ESE,112,0.0,5.0,99,0.00,,,0.01,0.000000,,2013-02-25 03:51:00,
2013-02-24 20:21:00,37.0,33.0,-100.00,SE,128,1.0,5.0,84,0.00,,,0.01,0.000000,,2013-02-25 04:21:00,
2013-02-24 20:31:00,37.0,33.0,-100.00,SE,128,1.0,5.0,84,0.00,,,0.01,0.000000,,2013-02-25 04:31:00,
2013-02-24 20:41:00,37.0,33.0,-100.00,SE,128,1.0,5.0,84,0.00,,,0.01,0.000000,,2013-02-25 04:41:00,
2013-02-24 20:51:00,37.0,33.0,-100.00,SE,128,1.0,5.0,84,0.00,,,0.01,0.000000,,2013-02-25 04:51:00,
2013-02-24 21:22:00,36.0,30.0,-100.00,ESE,112,1.0,5.0,80,0.00,,,0.01,0.000000,,2013-02-25 05:22:00,
2013-02-24 21:31:00,36.0,30.0,-100.00,ESE,112,1.0,5.0,80,0.00,,,0.01,0.000000,,2013-02-25 05:31:00,
2013-02-24 21:41:00,36.0,30.0,-100.00,ESE,112,1.0,5.0,80,0.00,,,0.01,0.000000,,2013-02-25 05:41:00,
2013-02-24 21:52:00,36.0,30.0,-100.00,ESE,112,1.0,5.0,80,0.00,,,0.01,0.000000,,2013-02-25 05:52:00,
2013-02-24 22:21:00,36.0,28.0,-100.00,ESE,112,2.0,8.0,72,0.00,,,0.01,0.000000,,2013-02-25 06:21:00,
2013-02-24 22:31:00,36.0,28.0,-100.00,ESE,112,2.0,8.0,72,0.00,,,0.01,0.000000,,2013-02-25 06:31:00,
2013-02-24 22:41:00,36.0,28.0,-100.00,ESE,112,2.0,8.0,72,0.00,,,0.01,0.000000,,2013-02-25 06:41:00,
2013-02-24 22:51:00,36.0,28.0,-100.00,ESE,112,2.0,8.0,72,0.00,,,0.01,0.000000,,2013-02-25 06:51:00,
2013-02-24 23:11:00,36.0,29.0,-100.00,ESE,117,1.0,7.0,76,0.00,,,0.01,0.000000,,2013-02-25 07:11:00,
2013-02-24 23:21:00,36.0,29.0,-100.00,ESE,117,1.0,7.0,76,0.00,,,0.01,0.000000,,2013-02-25 07:21:00,
2013-02-24 23:31:00,36.0,29.0,-100.00,ESE,117,1.0,7.0,76,0.00,,,0.01,0.000000,,2013-02-25 07:31:00,
2013-02-24 23:41:00,36.0,29.0,-100.00,ESE,117,1.0,7.0,76,0.00,,,0.01,0.000000,,2013-02-25 07:41:00,
2013-02-24 23:51:00,36.0,29.0,-100.00,ESE,117,1.0,7.0,76,0.00,,,0.01,0.000000,,2013-02-25 07:51:00,